Weather History for Lawrence, MA

Change the Weather History Date:

Thursday, December 6, 2012

  Actual Average Record
Temperature  
Mean Temperature 32 °F -  
Max Temperature 39 °F 40 °F 72 °F (2001)
Min Temperature 24 °F 23 °F 6 °F (1935)
Degree Days  
Heating Degree Days 32    
Moisture  
Dew Point 16 °F    
Average Humidity 53    
Maximum Humidity 75    
Minimum Humidity 38    
Precipitation  
Precipitation 0.00 in - - ()
Sea Level Pressure  
Sea Level Pressure 30.29 in    
Wind  
Wind Speed 6 mph (NW)    
Max Wind Speed 12 mph    
Max Gust Speed 31 mph    
Visibility 10 miles    
Events      
Averages and records for this station are not official NWS values.
T = Trace of Precipitation, MM = Missing Value Source: NWS Daily Summary

Daily Weather History Graph

Daily Weather History Graph

Search for Another Location

Airport:

Trip Planner

Search our weather history database for the weather conditions in past years. The results will help you decide how hot, cold, wet, or windy it might be!

Date:

Astronomy

Dec. 06, 2012 Rise Set
Actual Time 7:00 AM EST 4:10 PM EST
Civil Twilight 6:28 AM EST 4:42 PM EST
Nautical Twilight 5:53 AM EST 5:17 PM EST
Astronomical Twilight 5:19 AM EST 5:52 PM EST
Moon No Moon Rise 11:44 AM EST (12/6)
Length of Visible Light 10h 13m
Length of Day
9h 10m
Waning Gibbous, 49% of the Moon is Illuminated
Dec 6
Waning Gibbous
Dec 13
New
Dec 20
First Quarter
Dec 28
Full
Jan 4
Last Quarter

Hourly Weather History & Observations

Time (EST) Temp. Windchill Dew Point Humidity Pressure Visibility Wind Dir Wind Speed Gust Speed Precip Events Conditions
12:54 AM 32.0 °F 23.0 °F 16.0 °F 52% 30.16 in 10.0 mi NNW 11.5 mph 19.6 mph N/A   Clear
1:54 AM 32.0 °F 23.6 °F 16.0 °F 52% 30.18 in 10.0 mi NW 10.4 mph 31.1 mph N/A   Clear
2:54 AM 30.9 °F 24.3 °F 16.0 °F 54% 30.19 in 10.0 mi NNW 6.9 mph 16.1 mph N/A   Clear
3:54 AM 30.0 °F 24.1 °F 16.0 °F 56% 30.22 in 10.0 mi West 5.8 mph - N/A   Mostly Cloudy
4:54 AM 28.9 °F 25.2 °F 16.0 °F 58% 30.24 in 10.0 mi WNW 3.5 mph - N/A   Clear
5:54 AM 28.9 °F 21.9 °F 16.0 °F 58% 30.27 in 10.0 mi NW 6.9 mph - N/A   Clear
6:54 AM 28.4 °F 24.6 °F 15.8 °F 59% 30.28 in 10.0 mi NW 3.5 mph - N/A   Clear
7:54 AM 30.0 °F 26.5 °F 15.1 °F 54% 30.32 in 10.0 mi NW 3.5 mph - N/A   Clear
8:54 AM 32.0 °F 23.6 °F 15.1 °F 50% 30.33 in 10.0 mi NW 10.4 mph - N/A   Clear
9:54 AM 33.1 °F 24.4 °F 15.1 °F 48% 30.34 in 10.0 mi WNW 11.5 mph - N/A   Clear
10:54 AM 36.0 °F 30.3 °F 16.0 °F 44% 30.32 in 10.0 mi WNW 6.9 mph - N/A   Clear
11:54 AM 37.0 °F 31.6 °F 16.0 °F 42% 30.30 in 10.0 mi WNW 6.9 mph - N/A   Clear
12:54 PM 37.9 °F 35.5 °F 15.1 °F 39% 30.29 in 10.0 mi NW 3.5 mph - N/A   Clear
1:54 PM 39.9 °F 35.1 °F 16.0 °F 38% 30.27 in 10.0 mi Variable 6.9 mph - N/A   Clear
2:54 PM 39.0 °F 35.7 °F 15.1 °F 38% 30.29 in 10.0 mi NW 4.6 mph - N/A   Clear
3:54 PM 37.9 °F 33.5 °F 15.1 °F 39% 30.30 in 10.0 mi NW 5.8 mph - N/A   Clear
4:54 PM 36.0 °F - 15.1 °F 43% 30.31 in 10.0 mi Calm Calm - N/A   Clear
5:54 PM 33.1 °F - 16.0 °F 50% 30.31 in 10.0 mi Calm Calm - N/A   Clear
6:54 PM 28.0 °F - 16.0 °F 61% 30.32 in 10.0 mi Calm Calm - N/A   Clear
7:54 PM 28.9 °F - 16.0 °F 58% 30.32 in 10.0 mi Calm Calm - N/A   Clear
8:54 PM 28.0 °F - 17.1 °F 63% 30.32 in 10.0 mi Calm Calm - N/A   Clear
9:54 PM 27.0 °F - 17.1 °F 66% 30.33 in 10.0 mi Calm Calm - N/A   Clear
10:54 PM 26.1 °F - 17.1 °F 69% 30.32 in 10.0 mi Calm Calm - N/A   Clear
11:54 PM 24.1 °F - 17.1 °F 75% 30.32 in 10.0 mi Calm Calm - N/A   Clear